CW4629 Weather Reports


time (UTC)temp
C
wind
direction
speed
KPH
gust
KPH
rain 1hr
cm
rain 24hr
cm
rain mn
cm
humidity
%
barometer
mb
20260509205229 33 299 14.5 20.9 0.00 0.00 0.00 11 1013.7
20260509203247 33 303 4.8 9.7 0.00 0.00 0.00 11 1013.8
20260509202230 33 293 17.7 29.0 0.00 0.00 0.00 11 1013.8
20260509195348 34 291 14.5 20.9 0.00 0.00 0.00 11 1014.3
20260509195246 34 291 6.4 16.1 0.00 0.00 0.00 11 1014.2
20260509194329 34 157 0.0 3.2 0.00 0.00 0.00 11 1014.3
20260509193329 34 209 6.4 9.7 0.00 0.00 0.00 12 1014.5
20260509192329 33 270 0.0 1.6 0.00 0.00 0.00 12 1014.7
20260509190246 33 192 0.0 9.7 0.00 0.00 0.00 12 1015.0
20260509185329 32 172 4.8 8.0 0.00 0.00 0.00 12 1015.1
20260509184346 32 252 4.8 6.4 0.00 0.00 0.00 12 1015.3
20260509183346 32 180 1.6 4.8 0.00 0.00 0.00 11 1015.5
20260509182330 31 202 4.8 9.7 0.00 0.00 0.00 13 1015.6
20260509181331 31 156 3.2 6.4 0.00 0.00 0.00 13 1015.7
20260509180346 31 116 4.8 8.0 0.00 0.00 0.00 13 1015.7
20260509174329 30 162 3.2 6.4 0.00 0.00 0.00 14 1016.3
20260509172347 29 156 4.8 9.7 0.00 0.00 0.00 14 1016.2
20260509172229 29 191 6.4 9.7 0.00 0.00 0.00 14 1016.2
20260509171247 29 136 4.8 8.0 0.00 0.00 0.00 15 1016.3
20260509170346 28 189 6.4 9.7 0.00 0.00 0.00 15 1016.2
20260509165348 28 116 4.8 8.0 0.00 0.00 0.00 16 1016.4
20260509164330 27 179 0.0 4.8 0.00 0.00 0.00 15 1016.3
20260509163330 28 122 6.4 11.3 0.00 0.00 0.00 15 1016.3
20260509162329 27 157 0.0 1.6 0.00 0.00 0.00 14 1016.5
20260509161345 27 135 0.0 1.6 0.00 0.00 0.00 16 1016.4
20260509160329 27 202 0.0 1.6 0.00 0.00 0.00 15 1016.4
20260509155331 26 180 1.6 3.2 0.00 0.00 0.00 16 1016.5
20260509154345 25 71 0.0 3.2 0.00 0.00 0.00 16 1016.5
20260509153346 25 157 0.0 0.0 0.00 0.00 0.00 18 1016.6
20260509152329 25 180 1.6 4.8 0.00 0.00 0.00 19 1016.6
20260509151347 25 292 0.0 0.0 0.00 0.00 0.00 19 1016.5
20260509150329 24 292 0.0 0.0 0.00 0.00 0.00 20 1016.6
20260509145346 22 292 0.0 0.0 0.00 0.00 0.00 21 1016.6
20260509142347 20 202 1.6 4.8 0.00 0.00 0.00 26 1016.5
20260509140446 17 202 0.0 0.0 0.00 0.00 0.00 31 1016.5
20260509135530 17 202 1.6 3.2 0.00 0.00 0.00 34 1016.4
20260509134628 16 337 1.6 1.6 0.00 0.00 0.00 33 1016.3
20260509133728 16 157 0.0 0.0 0.00 0.00 0.00 33 1016.2
20260509132746 15 157 0.0 0.0 0.00 0.00 0.00 34 1016.0
20260509131745 15 135 0.0 0.0 0.00 0.00 0.00 34 1016.1
20260509125828 13 22 3.2 4.8 0.00 0.00 0.00 33 1015.7
20260509124828 14 337 0.0 0.0 0.00 0.00 0.00 34 1015.6
20260509123844 14 337 0.0 0.0 0.00 0.00 0.00 31 1015.6
20260509122927 13 337 0.0 0.0 0.00 0.00 0.00 35 1015.4
20260509121944 13 337 0.0 0.0 0.00 0.00 0.00 35 1015.3
20260509121030 14 337 0.0 0.0 0.00 0.00 0.00 32 1015.1
20260509120029 14 337 0.0 0.0 0.00 0.00 0.00 33 1015.0
20260509115029 14 337 0.0 0.0 0.00 0.00 0.00 31 1014.9
20260509114047 16 45 0.0 0.0 0.00 0.00 0.00 27 1014.7
20260509113130 16 67 3.2 4.8 0.00 0.00 0.00 26 1014.7
20260509112145 15 202 0.0 0.0 0.00 0.00 0.00 28 1014.7
20260509111128 16 315 0.0 0.0 0.00 0.00 0.00 28 1014.6
20260509110129 16 315 0.0 0.0 0.00 0.00 0.00 27 1014.5
20260509105228 16 337 1.6 3.2 0.00 0.00 0.00 27 1014.3
20260509104229 17 360 0.0 0.0 0.00 0.00 0.00 25 1014.4
20260509103246 17 360 0.0 0.0 0.00 0.00 0.00 23 1014.2
20260509102228 18 360 0.0 1.6 0.00 0.00 0.00 22 1014.2
20260509101229 18 320 3.2 6.4 0.00 0.00 0.00 22 1014.0
20260509095329 18 346 6.4 9.7 0.00 0.00 0.00 20 1013.9
20260509094345 19 353 8.0 11.3 0.00 0.00 0.00 20 1013.9
20260509093429 18 326 6.4 8.0 0.00 0.00 0.00 21 1013.9
20260509092445 18 354 8.0 12.9 0.00 0.00 0.00 22 1013.9
20260509091429 19 345 4.8 8.0 0.00 0.00 0.00 21 1013.8
20260509090429 19 22 0.0 1.6 0.00 0.00 0.00 21 1013.7
20260509085428 19 22 3.2 4.8 0.00 0.00 0.00 21 1013.5
20260509084429 20 351 4.8 6.4 0.00 0.00 0.00 20 1013.5
20260509083428 20 360 3.2 4.8 0.00 0.00 0.00 19 1013.5
20260509082446 20 20 4.8 8.0 0.00 0.00 0.00 19 1013.5
20260509081527 20 346 4.8 6.4 0.00 0.00 0.00 19 1013.5
20260509081428 20 337 3.2 4.8 0.00 0.00 0.00 19 1013.6
20260509075430 21 328 1.6 4.8 0.00 0.00 0.00 19 1013.5
20260509074430 21 326 1.6 3.2 0.00 0.00 0.00 18 1013.3
20260509073428 22 14 3.2 6.4 0.00 0.00 0.00 17 1013.3
20260509072429 22 20 4.8 6.4 0.00 0.00 0.00 17 1013.2
20260509070429 23 323 1.6 3.2 0.00 0.00 0.00 16 1013.1
20260509065429 23 342 4.8 6.4 0.00 0.00 0.00 16 1012.9
20260509064527 23 22 3.2 6.4 0.00 0.00 0.00 16 1013.0
20260509063546 23 292 4.8 6.4 0.00 0.00 0.00 16 1012.9
20260509062627 24 303 9.7 12.9 0.00 0.00 0.00 15 1012.8
20260509061646 25 297 8.0 11.3 0.00 0.00 0.00 14 1012.9
20260509060627 24 301 12.9 17.7 0.00 0.00 0.00 16 1012.9
20260509060527 24 306 11.3 17.7 0.00 0.00 0.00 17 1012.7
20260509055534 24 339 4.8 9.7 0.00 0.00 0.00 18 1012.7
20260509054535 25 336 4.8 6.4 0.00 0.00 0.00 16 1012.7
20260509053548 24 333 4.8 6.4 0.00 0.00 0.00 17 1012.5
20260509052631 24 225 0.0 0.0 0.00 0.00 0.00 18 1012.6
20260509051635 24 315 0.0 0.0 0.00 0.00 0.00 19 1012.8
20260509050648 25 315 0.0 0.0 0.00 0.00 0.00 18 1012.6
20260509044749 25 25 4.8 8.0 0.00 0.00 0.00 18 1012.4
20260509043834 25 202 0.0 1.6 0.00 0.00 0.00 17 1012.3
20260509042834 26 360 0.0 0.0 0.00 0.00 0.00 16 1012.2
20260509041834 27 360 0.0 1.6 0.00 0.00 0.00 15 1012.0
20260509035933 28 23 3.2 6.4 0.00 0.00 0.00 12 1012.0
20260509033933 30 249 6.4 9.7 0.00 0.00 0.00 11 1011.7
20260509032034 30 230 6.4 9.7 0.00 0.00 0.00 10 1011.5
20260509031131 30 234 8.0 12.9 0.00 0.00 0.00 10 1011.3
20260509031048 30 235 11.3 16.1 0.00 0.00 0.00 10 1011.3
20260509030049 30 233 8.0 12.9 0.00 0.00 0.00 10 1011.3
20260509025133 31 217 8.0 11.3 0.00 0.00 0.00 10 1011.2
20260509022331 32 214 9.7 14.5 0.00 0.00 0.00 9 1010.7
20260509021332 32 222 11.3 17.7 0.00 0.00 0.00 9 1010.7
20260509020430 33 224 9.7 12.9 0.00 0.00 0.00 8 1010.7
20260509015433 33 237 6.4 12.9 0.00 0.00 0.00 6 1010.3
20260509014448 33 259 6.4 12.9 0.00 0.00 0.00 5 1010.4
20260509013431 33 247 8.0 11.3 0.00 0.00 0.00 6 1010.4
20260509012448 34 260 11.3 20.9 0.00 0.00 0.00 6 1010.4
20260509011533 34 254 12.9 19.3 0.00 0.00 0.00 7 1010.4
20260509010631 34 248 9.7 17.7 0.00 0.00 0.00 7 1010.6
20260509010549 34 263 8.0 11.3 0.00 0.00 0.00 7 1010.5
20260509005631 35 254 8.0 16.1 0.00 0.00 0.00 7 1010.3
20260509003647 35 246 9.7 14.5 0.00 0.00 0.00 7 1010.5
20260509002730 35 291 8.0 11.3 0.00 0.00 0.00 8 1010.4
20260509001749 35 42 3.2 9.7 0.00 0.00 0.00 8 1010.6
20260509000733 35 198 9.7 12.9 0.00 0.00 0.00 9 1010.7
20260508235732 35 260 1.6 8.0 0.00 0.00 0.00 7 1010.7
20260508235631 35 243 3.2 6.4 0.00 0.00 0.00 7 1010.9
20260508234632 35 209 9.7 16.1 0.00 0.00 0.00 7 1011.1
20260508234549 35 220 14.5 20.9 0.00 0.00 0.00 8 1011.1
20260508233633 35 197 12.9 19.3 0.00 0.00 0.00 8 1011.1
20260508231631 35 263 11.3 17.7 0.00 0.00 0.00 7 1011.2
20260508230632 35 224 14.5 20.9 0.00 0.00 0.00 8 1011.4
20260508225650 35 216 8.0 14.5 0.00 0.00 0.00 9 1011.6
20260508224633 35 222 12.9 19.3 0.00 0.00 0.00 9 1011.5
20260508223730 34 281 8.0 20.9 0.00 0.00 0.00 9 1011.6
20260508222748 34 247 12.9 20.9 0.00 0.00 0.00 8 1012.0
20260508221732 34 215 16.1 29.0 0.00 0.00 0.00 8 1012.0
20260508220747 34 209 12.9 17.7 0.00 0.00 0.00 9 1012.3
20260508215731 34 210 12.9 17.7 0.00 0.00 0.00 9 1012.4
20260508214831 34 248 6.4 12.9 0.00 0.00 0.00 8 1012.5
20260508213847 34 246 14.5 20.9 0.00 0.00 0.00 9 1012.4
20260508212848 34 216 19.3 30.6 0.00 0.00 0.00 9 1012.8
20260508211847 34 279 14.5 20.9 0.00 0.00 0.00 10 1013.0
20260508210849 33 249 8.0 12.9 0.00 0.00 0.00 9 1013.0
20260508205938 34 257 11.3 17.7 0.00 0.00 0.00 9 1013.0